Tracking 35237 objects as of 5-Sep-2026
HD Live streaming from Space Station
objects crossing your sky now

SL-8 DEB


SL-8 DEB is no longer on orbit


NORAD ID: 1878
Int'l Code: 1965-112K
Launch date: December 28, 1965
Source: Commonwealth of Independent States (former USSR) (CIS)
Launch site: TYURATAM MISSILE AND SPACE COMPLEX (TTMTR)
Decay date: 1970-07-02

Note: This is SATELLITE DEBRIS
Your satellite tracking list
Your tracking list is empty




NASA's NSSDC Master Catalog

Two Line Element Set (TLE):
1 01878U 65112  K 70172.64845833  .00902754 +00000-0 +00000-0 0  9994
2 01878 056.0138 036.4230 0006839 214.8494 145.2072 15.82248776245399
Source of the keplerian elements: AFSPC